Flag for Germany Weather past 2 weeks in Nuremberg, Bavaria, Germany

Now
55 °F

Clear.


Feels Like: 55 °F
Forecast: 48 / 73 °F
Wind: 5 mph from East

Location: Nuernberg

Current Time: Apr 26, 2015 at 11:41:21 PM

Latest Report: Apr 26, 2015 at 10:50 PM


Visibility: 10 mi

Pressure: 29.68 "Hg

Humidity: 72%

Dew point: 46 °F

Location of NurembergLocation

Historic Weather in Nuremberg — Graph

°F

Nuremberg temperature yesterday

Maximum temperature yesterday: 64 °F (at 4:20 PM)
Minimum temperature yesterday: 39 °F (at 4:50 AM)
Average temperature yesterday: 53 °F

Past Weeks' High & Low Weather Summary

 TemperatureHumidityPressure
High75 °F (Apr 15, 4:50 PM)100% (Apr 26, 4:50 AM)30.45 "Hg (Apr 26, 4:50 AM)
Low28 °F (Apr 19, 4:50 AM)19% (Apr 15, 5:20 PM)29.68 "Hg (Apr 26, 7:20 PM)
Average52 °F60%30.13 "Hg
* Reported Apr 11 10:20 PM — Apr 26 10:20 PM, Nuremberg, Weather by CustomWeather, © 2015

Note: Actual official high and low records may vary slightly from our data, if they occured in-between our weather recording intervals... More about our weather records

Advertising

Nuremberg weather history for previous 24 hours

 ConditionsComfort  
Time TempWeatherWind HumidityBarometerVisibility
10:20 PM
Sun, Apr 26
59 °FClear.2 mph63%29.68 "Hg10 mi
9:50 PM57 °FClear.1 mph72%29.68 "Hg10 mi
9:20 PM57 °FSunny.1 mph72%29.68 "Hg10 mi
8:50 PM59 °FSunny.2 mph68%29.68 "Hg10 mi
8:20 PM64 °FSunny.2 mph56%29.68 "Hg10 mi
7:50 PM64 °FSunny.5 mph56%29.68 "Hg10 mi
7:20 PM66 °FPassing clouds.3 mph49%29.68 "HgN/A
6:50 PM68 °FSunny.2 mph46%29.71 "Hg10 mi
6:20 PM68 °FPartly sunny.5 mph43%29.71 "HgN/A
5:50 PM68 °FPassing clouds.6 mph46%29.71 "HgN/A
5:20 PM68 °FPassing clouds.7 mph46%29.71 "HgN/A
4:50 PM68 °FPartly sunny.6 mph43%29.71 "HgN/A
4:20 PM68 °FPartly sunny.6 mph46%29.74 "HgN/A
3:50 PM68 °FPartly sunny.5 mph49%29.74 "HgN/A
3:20 PM64 °FPartly sunny.5 mph52%29.77 "HgN/A
2:50 PM64 °FBroken clouds.8 mph56%29.77 "HgN/A
2:20 PM68 °FBroken clouds.7 mph49%29.77 "HgN/A
1:50 PM68 °FScattered showers. Broken clouds.10 mph53%29.80 "HgN/A
1:20 PM64 °FScattered clouds.7 mph56%29.80 "HgN/A
12:50 PM63 °FScattered clouds.7 mph64%29.80 "HgN/A
12:20 PM63 °FPartly sunny.7 mph64%29.83 "HgN/A
11:50 AM61 °FPartly sunny.9 mph68%29.83 "HgN/A
11:20 AM61 °FScattered clouds.5 mph68%29.83 "HgN/A
10:50 AM61 °FScattered clouds.6 mph72%29.83 "HgN/A
10:20 AM59 °FScattered clouds.6 mph77%29.83 "HgN/A
9:50 AM57 °FScattered clouds.5 mph82%29.83 "HgN/A
9:20 AM55 °FBroken clouds.5 mph88%29.83 "HgN/A
8:50 AM55 °FBroken clouds.5 mph88%29.83 "HgN/A
8:20 AM54 °FBroken clouds.3 mph94%29.83 "HgN/A
7:50 AM54 °FPartly sunny.3 mph94%29.86 "HgN/A
7:20 AM54 °FBroken clouds.3 mph94%29.83 "HgN/A
6:50 AM54 °FPartly cloudy.2 mph94%29.83 "HgN/A
6:20 AM54 °FPassing clouds.3 mph94%29.83 "HgN/A
5:50 AM54 °FPassing clouds.3 mph94%29.83 "HgN/A
5:20 AM54 °FPassing clouds.2 mph94%29.83 "HgN/A
4:50 AM52 °FPassing clouds.1 mph100%29.83 "HgN/A
4:20 AM54 °FPassing clouds.1 mph94%29.86 "HgN/A
3:50 AM54 °FLight rain. Partly cloudy.2 mph94%29.83 "HgN/A
3:20 AM54 °FLight rain. Partly cloudy.2 mph94%29.83 "HgN/A
2:50 AM54 °FLight rain. Partly cloudy.1 mph88%29.86 "HgN/A
2:20 AM54 °FLight rain. Partly cloudy.2 mph88%29.86 "HgN/A
1:50 AM54 °FPartly cloudy.2 mph88%29.86 "HgN/A
1:20 AM54 °FPartly cloudy.3 mph88%29.86 "HgN/A
12:50 AM54 °FPartly cloudy.3 mph88%29.86 "HgN/A
12:20 AM52 °FPassing clouds.3 mph94%29.86 "HgN/A
11:20 PM
Sat, Apr 25
55 °FPassing clouds.2 mph88%29.86 "HgN/A
Weather by CustomWeather, © 2015

See weather overviewHow to use our weather pages